RYR6566 LEAL-LEIB

Flight info

Callsign RYR6566
Flight time 0h 26m
Altitude 14000
Route MITOS N851 RUXET
Aircraft B738/M-SDE2E3FGHIRWXY/LB1

Departure

Time 2026-05-01 12:22
Airport Alicante-Elche Miguel Hernández Airport (LEAL)

Arrival

Time 2026-05-01 12:48
Airport Ibiza Airport (LEIB)
Time Latitude Longitude Altitude Speed Heading
2026-05-01 12:04 38.28575 -0.55056 86 ft 0 kts 304°
2026-05-01 12:11 38.28549 -0.55007 85 ft 4 kts 292°
2026-05-01 12:11 38.28545 -0.54977 83 ft 4 kts 246°
2026-05-01 12:11 38.28558 -0.54960 87 ft 3 kts 190°
2026-05-01 12:12 38.28563 -0.54959 87 ft 2 kts 190°
2026-05-01 12:14 38.28558 -0.54960 87 ft 6 kts 190°
2026-05-01 12:14 38.28472 -0.54981 82 ft 15 kts 191°
2026-05-01 12:14 38.28422 -0.55069 81 ft 15 kts 279°
2026-05-01 12:15 38.28376 -0.55179 85 ft 14 kts 233°
2026-05-01 12:15 38.28326 -0.55282 90 ft 13 kts 258°
2026-05-01 12:15 38.28338 -0.55402 94 ft 17 kts 280°
2026-05-01 12:15 38.28366 -0.55596 99 ft 24 kts 279°
2026-05-01 12:16 38.28392 -0.55800 105 ft 23 kts 279°
2026-05-01 12:16 38.28418 -0.55994 109 ft 22 kts 280°
2026-05-01 12:16 38.28447 -0.56194 110 ft 25 kts 280°
2026-05-01 12:16 38.28477 -0.56410 115 ft 24 kts 280°
2026-05-01 12:17 38.28505 -0.56613 120 ft 23 kts 280°
2026-05-01 12:17 38.28533 -0.56806 125 ft 22 kts 281°
2026-05-01 12:17 38.28560 -0.56998 136 ft 21 kts 279°
2026-05-01 12:17 38.28586 -0.57180 143 ft 21 kts 281°
2026-05-01 12:18 38.28611 -0.57354 150 ft 18 kts 280°
2026-05-01 12:18 38.28608 -0.57487 154 ft 15 kts 223°
2026-05-01 12:18 38.28559 -0.57507 156 ft 0 kts 190°
2026-05-01 12:19 38.28524 -0.57515 157 ft 10 kts 190°
2026-05-01 12:20 38.28448 -0.57480 156 ft 14 kts 109°
2026-05-01 12:20 38.28437 -0.57381 152 ft 9 kts 99°
2026-05-01 12:20 38.28436 -0.57373 151 ft 0 kts 99°
2026-05-01 12:21 38.28418 -0.57236 145 ft 54 kts 99°
2026-05-01 12:21 38.28295 -0.56362 112 ft 142 kts 100°
2026-05-01 12:22 38.28088 -0.54873 488 ft 182 kts 99°
2026-05-01 12:22 38.27871 -0.53234 1507 ft 193 kts 100°
2026-05-01 12:22 38.27646 -0.51573 2593 ft 194 kts 99°
2026-05-01 12:22 38.27369 -0.49847 3337 ft 202 kts 99°
2026-05-01 12:23 38.27445 -0.48023 3732 ft 221 kts 70°
2026-05-01 12:23 38.28389 -0.46416 4201 ft 228 kts 42°
2026-05-01 12:23 38.29465 -0.44894 4764 ft 238 kts 58°
2026-05-01 12:23 38.30215 -0.42993 5373 ft 243 kts 62°
2026-05-01 12:24 38.31067 -0.41130 5965 ft 249 kts 57°
2026-05-01 12:24 38.32026 -0.39256 6608 ft 254 kts 56°
2026-05-01 12:24 38.33017 -0.37367 7254 ft 258 kts 57°
2026-05-01 12:24 38.33838 -0.35344 7921 ft 261 kts 67°
2026-05-01 12:25 38.34514 -0.33165 8572 ft 267 kts 69°
2026-05-01 12:25 38.35890 -0.28695 9902 ft 274 kts 68°
2026-05-01 12:25 38.36611 -0.26426 10558 ft 277 kts 68°
2026-05-01 12:26 38.37365 -0.24145 11166 ft 281 kts 67°
2026-05-01 12:26 38.38974 -0.19311 12046 ft 315 kts 67°
2026-05-01 12:26 38.39845 -0.16691 12664 ft 325 kts 67°
2026-05-01 12:27 38.40736 -0.14006 13438 ft 330 kts 67°
2026-05-01 12:27 38.42525 -0.08601 14190 ft 338 kts 67°
2026-05-01 12:28 38.44479 -0.02683 14204 ft 384 kts 67°
2026-05-01 12:28 38.45536 0.00541 14206 ft 403 kts 68°
2026-05-01 12:28 38.47720 0.07317 14192 ft 416 kts 68°
2026-05-01 12:29 38.48815 0.10734 14187 ft 415 kts 68°
2026-05-01 12:29 38.49910 0.14151 14185 ft 417 kts 68°
2026-05-01 12:29 38.52082 0.20936 14187 ft 415 kts 68°
2026-05-01 12:30 38.54267 0.27769 14187 ft 414 kts 68°
2026-05-01 12:30 38.55357 0.31182 14189 ft 416 kts 68°
2026-05-01 12:30 38.56447 0.34603 14190 ft 416 kts 68°
2026-05-01 12:31 38.57538 0.38028 14186 ft 413 kts 68°
2026-05-01 12:31 38.58612 0.41405 14195 ft 417 kts 68°
2026-05-01 12:31 38.59702 0.44836 14186 ft 414 kts 68°
2026-05-01 12:31 38.60784 0.48242 14190 ft 415 kts 68°
2026-05-01 12:32 38.61865 0.51644 14180 ft 404 kts 68°
2026-05-01 12:32 38.63876 0.57964 14168 ft 367 kts 68°
2026-05-01 12:32 38.64817 0.60925 14168 ft 350 kts 68°
2026-05-01 12:33 38.65716 0.63758 14114 ft 336 kts 68°
2026-05-01 12:33 38.66639 0.66479 13875 ft 329 kts 59°
2026-05-01 12:33 38.68096 0.68681 13591 ft 322 kts 38°
2026-05-01 12:33 38.69874 0.70393 13279 ft 318 kts 34°
2026-05-01 12:34 38.71654 0.71998 12950 ft 315 kts 34°
2026-05-01 12:34 38.73444 0.73604 12627 ft 313 kts 34°
2026-05-01 12:34 38.75215 0.75209 12302 ft 310 kts 34°
2026-05-01 12:34 38.76966 0.76814 12045 ft 306 kts 34°
2026-05-01 12:35 38.78668 0.78386 11915 ft 297 kts 34°
2026-05-01 12:35 38.80302 0.79900 11786 ft 289 kts 34°
2026-05-01 12:35 38.81908 0.81391 11654 ft 281 kts 34°
2026-05-01 12:35 38.83424 0.82932 11499 ft 276 kts 47°
2026-05-01 12:36 38.84443 0.85007 11234 ft 274 kts 62°
2026-05-01 12:36 38.85331 0.87179 10954 ft 274 kts 61°
2026-05-01 12:36 38.86223 0.89338 10686 ft 273 kts 61°
2026-05-01 12:36 38.87107 0.91459 10416 ft 272 kts 61°
2026-05-01 12:37 38.87998 0.93597 10198 ft 269 kts 63°
2026-05-01 12:37 38.88440 0.95883 10051 ft 263 kts 92°
2026-05-01 12:37 38.87997 0.98107 9837 ft 257 kts 121°
2026-05-01 12:37 38.86873 0.99851 9574 ft 253 kts 143°
2026-05-01 12:38 38.85403 1.01008 9335 ft 249 kts 155°
2026-05-01 12:38 38.83750 1.01513 9045 ft 244 kts 185°
2026-05-01 12:38 38.82166 1.00898 8815 ft 238 kts 214°
2026-05-01 12:38 38.80981 0.99464 8582 ft 233 kts 237°
2026-05-01 12:39 38.80150 0.97669 8331 ft 235 kts 242°
2026-05-01 12:39 38.79383 0.95801 7957 ft 240 kts 242°
2026-05-01 12:39 38.78323 0.94141 7681 ft 241 kts 222°
2026-05-01 12:39 38.77069 0.92715 7422 ft 241 kts 223°
2026-05-01 12:40 38.75798 0.91313 7157 ft 241 kts 213°
2026-05-01 12:40 38.74235 0.90659 6901 ft 240 kts 180°
2026-05-01 12:40 38.72621 0.91087 6695 ft 236 kts 156°
2026-05-01 12:40 38.71182 0.92086 6436 ft 234 kts 137°
2026-05-01 12:41 38.70298 0.93758 6202 ft 229 kts 105°
2026-05-01 12:41 38.70192 0.95762 5976 ft 227 kts 77°
2026-05-01 12:41 38.70748 0.97637 5749 ft 224 kts 61°
2026-05-01 12:41 38.71503 0.99390 5510 ft 224 kts 59°
2026-05-01 12:42 38.72269 1.01096 5253 ft 224 kts 59°
2026-05-01 12:42 38.73019 1.02859 4988 ft 225 kts 60°
2026-05-01 12:42 38.73758 1.04638 4731 ft 225 kts 60°
2026-05-01 12:42 38.74485 1.06400 4538 ft 222 kts 60°
2026-05-01 12:43 38.75204 1.08146 4305 ft 221 kts 60°
2026-05-01 12:43 38.75915 1.09875 4095 ft 216 kts 60°
2026-05-01 12:43 38.76598 1.11538 3859 ft 211 kts 60°
2026-05-01 12:43 38.77274 1.13186 3627 ft 205 kts 60°
2026-05-01 12:44 38.77931 1.14789 3403 ft 200 kts 60°
2026-05-01 12:44 38.78579 1.16351 3174 ft 197 kts 60°
2026-05-01 12:44 38.79902 1.19382 2852 ft 198 kts 60°
2026-05-01 12:45 38.81178 1.22476 2345 ft 193 kts 61°
2026-05-01 12:45 38.81797 1.23983 2087 ft 189 kts 61°
2026-05-01 12:45 38.82401 1.25453 1827 ft 182 kts 61°
2026-05-01 12:46 38.82981 1.26865 1577 ft 176 kts 61°
2026-05-01 12:46 38.83551 1.28251 1365 ft 177 kts 61°
2026-05-01 12:46 38.84122 1.29638 1117 ft 172 kts 62°
2026-05-01 12:46 38.84657 1.30938 930 ft 156 kts 62°
2026-05-01 12:47 38.85137 1.32104 727 ft 141 kts 63°
2026-05-01 12:47 38.85585 1.33193 532 ft 135 kts 62°
2026-05-01 12:47 38.86028 1.34270 333 ft 137 kts 63°
2026-05-01 12:47 38.86482 1.35363 156 ft 140 kts 63°
2026-05-01 12:48 38.86926 1.36446 36 ft 131 kts 63°
2026-05-01 12:48 38.87273 1.37283 28 ft 75 kts 62°
2026-05-01 12:48 38.87425 1.37650 26 ft 30 kts 62°
2026-05-01 12:48 38.87556 1.37841 27 ft 28 kts 28°
2026-05-01 12:49 38.87684 1.37912 27 ft 15 kts 327°
2026-05-01 12:49 38.87670 1.37795 27 ft 14 kts 248°
2026-05-01 12:49 38.87627 1.37686 27 ft 13 kts 242°
2026-05-01 12:49 38.87587 1.37580 26 ft 13 kts 262°
2026-05-01 12:50 38.87650 1.37508 26 ft 13 kts 331°
2026-05-01 12:50 38.87700 1.37428 26 ft 12 kts 260°
2026-05-01 12:50 38.87661 1.37331 26 ft 12 kts 241°
2026-05-01 12:50 38.87623 1.37239 30 ft 12 kts 243°
2026-05-01 12:51 38.87600 1.37181 30 ft 7 kts 243°
2026-05-01 12:51 38.87579 1.37129 27 ft 6 kts 242°
2026-05-01 12:51 38.87627 1.37062 28 ft 4 kts 333°
2026-05-01 12:52 38.87633 1.37058 27 ft 0 kts 333°